• In Schweiz
  • Länderverzeichnis
  • Für 7 Tage
  • Wassertemperatur
  • Satellitenkarten
  • Wetterkarte
  • Widgets
  • user-avatar
    Anmelden

    Stündliche Wetter Kalgoorlie

    Heute, 20 Oktober, Samstag

    Zeit Temperatur Niederschläge Wind Luftdruck Luftfeuchtigkeit
    00:00 +16°C° 0 mm 2 m/S 733 mmHg 38%
    01:00 +16°C° 0 mm 2 m/S 733 mmHg 40%
    02:00 +15°C° 0 mm 2 m/S 732 mmHg 41%
    03:00 +15°C° 0 mm 2 m/S 732 mmHg 42%
    04:00 +14°C° 0 mm 2 m/S 732 mmHg 44%
    05:00 +14°C° 0 mm 2 m/S 732 mmHg 45%
    06:00 +16°C° 0 mm 3 m/S 732 mmHg 40%
    07:00 +18°C° 0 mm 3 m/S 733 mmHg 35%
    08:00 +20°C° 0 mm 4 m/S 733 mmHg 30%
    09:00 +21°C° 0 mm 4 m/S 733 mmHg 27%
    10:00 +23°C° 0 mm 5 m/S 732 mmHg 24%
    11:00 +26°C° 0 mm 5 m/S 732 mmHg 20%
    12:00 +27°C° 0 mm 5 m/S 731 mmHg 19%
    13:00 +28°C° 0 mm 6 m/S 731 mmHg 18%
    14:00 +29°C° 0 mm 6 m/S 730 mmHg 16%
    15:00 +29°C° 0 mm 6 m/S 730 mmHg 16%
    16:00 +29°C° 0 mm 6 m/S 729 mmHg 16%
    17:00 +29°C° 0 mm 6 m/S 729 mmHg 16%
    18:00 +28°C° 0 mm 5 m/S 729 mmHg 19%
    19:00 +26°C° 0 mm 4 m/S 729 mmHg 21%
    20:00 +25°C° 0 mm 3 m/S 729 mmHg 23%
    21:00 +24°C° 0 mm 3 m/S 729 mmHg 25%
    22:00 +24°C° 0 mm 3 m/S 729 mmHg 27%
    23:00 +22°C° 0 mm 3 m/S 729 mmHg 29%

    Morgen, 21 Oktober, Sonntag

    Zeit Temperatur Niederschläge Wind Luftdruck Luftfeuchtigkeit
    00:00 +21°C° 0 mm 4 m/S 729 mmHg 34%
    01:00 +20°C° 0 mm 4 m/S 729 mmHg 39%
    02:00 +19°C° 0 mm 5 m/S 728 mmHg 44%
    03:00 +18°C° 0 mm 4 m/S 728 mmHg 52%
    04:00 +17°C° 0 mm 4 m/S 728 mmHg 59%
    05:00 +15°C° 0 mm 4 m/S 728 mmHg 66%
    06:00 +16°C° 0 mm 5 m/S 729 mmHg 62%
    07:00 +17°C° 0 mm 5 m/S 729 mmHg 58%
    08:00 +19°C° 0 mm 6 m/S 729 mmHg 54%
    09:00 +21°C° 0 mm 6 m/S 729 mmHg 47%
    10:00 +23°C° 0 mm 7 m/S 729 mmHg 39%
    11:00 +26°C° 0 mm 8 m/S 729 mmHg 32%
    12:00 +27°C° 0 mm 8 m/S 728 mmHg 29%
    13:00 +27°C° 0 mm 9 m/S 728 mmHg 26%
    14:00 +28°C° 0 mm 9 m/S 727 mmHg 23%
    15:00 +28°C° 0 mm 9 m/S 727 mmHg 25%
    16:00 +27°C° 0 mm 9 m/S 727 mmHg 27%
    17:00 +26°C° 0 mm 9 m/S 727 mmHg 29%
    18:00 +24°C° 0 mm 8 m/S 727 mmHg 34%
    19:00 +23°C° 0 mm 8 m/S 728 mmHg 39%
    20:00 +21°C° 0 mm 7 m/S 728 mmHg 45%
    21:00 +20°C° 0 mm 7 m/S 729 mmHg 48%
    22:00 +20°C° 0 mm 7 m/S 729 mmHg 52%
    23:00 +18°C° 0 mm 7 m/S 729 mmHg 55%

    übermorgen, 22 Oktober, Montag

    Zeit Temperatur Niederschläge Wind Luftdruck Luftfeuchtigkeit
    00:00 +16°C° 0 mm 7 m/S 729 mmHg 58%
    01:00 +15°C° 0 mm 8 m/S 729 mmHg 60%
    02:00 +13°C° 0 mm 8 m/S 729 mmHg 63%
    03:00 +12°C° 0 mm 8 m/S 729 mmHg 63%
    04:00 +11°C° 0 mm 7 m/S 730 mmHg 63%
    05:00 +10°C° 0 mm 7 m/S 730 mmHg 63%
    06:00 +11°C° 0 mm 7 m/S 731 mmHg 59%
    07:00 +12°C° 0 mm 7 m/S 731 mmHg 55%
    08:00 +12°C° 0 mm 7 m/S 732 mmHg 50%
    09:00 +15°C° 0 mm 6 m/S 732 mmHg 44%
    10:00 +17°C° 0 mm 6 m/S 732 mmHg 38%
    11:00 +19°C° 0 mm 5 m/S 732 mmHg 32%
    12:00 +20°C° 0 mm 5 m/S 732 mmHg 28%
    13:00 +21°C° 0 mm 5 m/S 731 mmHg 25%
    14:00 +23°C° 0 mm 5 m/S 730 mmHg 22%
    15:00 +23°C° 0 mm 5 m/S 730 mmHg 22%
    16:00 +23°C° 0 mm 5 m/S 731 mmHg 21%
    17:00 +22°C° 0 mm 5 m/S 731 mmHg 21%
    18:00 +21°C° 0 mm 5 m/S 731 mmHg 23%
    19:00 +20°C° 0 mm 4 m/S 732 mmHg 24%
    20:00 +19°C° 0 mm 3 m/S 732 mmHg 26%
    21:00 +18°C° 0 mm 4 m/S 732 mmHg 31%
    22:00 +16°C° 0 mm 5 m/S 733 mmHg 36%
    23:00 +15°C° 0 mm 6 m/S 733 mmHg 41%

    23 Oktober, Dienstag

    Zeit Temperatur Niederschläge Wind Luftdruck Luftfeuchtigkeit
    00:00 +14°C° 0 mm 6 m/S 733 mmHg 46%
    01:00 +13°C° 0 mm 6 m/S 732 mmHg 52%
    02:00 +11°C° 0 mm 6 m/S 732 mmHg 57%
    03:00 +11°C° 0 mm 6 m/S 732 mmHg 59%
    04:00 +10°C° 0 mm 6 m/S 732 mmHg 62%
    05:00 +10°C° 0 mm 6 m/S 733 mmHg 64%
    06:00 +11°C° 0 mm 6 m/S 733 mmHg 60%
    07:00 +13°C° 0 mm 6 m/S 733 mmHg 56%
    08:00 +14°C° 0 mm 7 m/S 733 mmHg 51%
    09:00 +16°C° 0 mm 6 m/S 733 mmHg 45%
    10:00 +19°C° 0 mm 6 m/S 733 mmHg 38%
    11:00 +21°C° 0 mm 6 m/S 732 mmHg 32%
    12:00 +22°C° 0 mm 5 m/S 732 mmHg 29%
    13:00 +25°C° 0 mm 5 m/S 731 mmHg 26%
    14:00 +26°C° 0 mm 4 m/S 730 mmHg 23%
    15:00 +26°C° 0 mm 4 m/S 730 mmHg 22%
    16:00 +26°C° 0 mm 4 m/S 730 mmHg 21%
    17:00 +26°C° 0 mm 4 m/S 730 mmHg 20%
    18:00 +26°C° 0 mm 4 m/S 729 mmHg 22%
    19:00 +25°C° 0 mm 4 m/S 729 mmHg 23%
    20:00 +23°C° 0 mm 4 m/S 729 mmHg 25%
    21:00 +22°C° 0 mm 4 m/S 729 mmHg 26%
    22:00 +22°C° 0 mm 5 m/S 728 mmHg 27%
    23:00 +21°C° 0 mm 5 m/S 728 mmHg 28%

    24 Oktober, Mittwoch

    Zeit Temperatur Niederschläge Wind Luftdruck Luftfeuchtigkeit
    00:00 +20°C° 0 mm 6 m/S 727 mmHg 29%
    01:00 +20°C° 0 mm 6 m/S 727 mmHg 29%
    02:00 +19°C° 0 mm 6 m/S 726 mmHg 30%
    03:00 +19°C° 0 mm 6 m/S 726 mmHg 31%
    04:00 +17°C° 0 mm 6 m/S 726 mmHg 32%
    05:00 +17°C° 0 mm 6 m/S 726 mmHg 33%
    06:00 +20°C° 0 mm 6 m/S 726 mmHg 31%
    07:00 +21°C° 0 mm 7 m/S 726 mmHg 29%
    08:00 +23°C° 0 mm 8 m/S 727 mmHg 26%
    09:00 +26°C° 0 mm 8 m/S 726 mmHg 24%
    10:00 +28°C° 0 mm 8 m/S 725 mmHg 22%
    11:00 +32°C° 0 mm 7 m/S 725 mmHg 19%
    12:00 +33°C° 0 mm 7 m/S 724 mmHg 18%
    13:00 +34°C° 0 mm 6 m/S 723 mmHg 17%
    14:00 +35°C° 0 mm 6 m/S 721 mmHg 16%
    15:00 +33°C° 0.2 mm 6 m/S 721 mmHg 20%
    16:00 +30°C° 0.2 mm 6 m/S 721 mmHg 24%
    17:00 +29°C° 0.2 mm 7 m/S 720 mmHg 28%
    18:00 +27°C° 0.5 mm 7 m/S 721 mmHg 34%
    19:00 +24°C° 0.5 mm 7 m/S 722 mmHg 41%
    20:00 +22°C° 0.5 mm 7 m/S 722 mmHg 48%
    21:00 +20°C° 0.3 mm 8 m/S 722 mmHg 56%
    22:00 +18°C° 0.3 mm 9 m/S 722 mmHg 63%
    23:00 +16°C° 0.3 mm 10 m/S 722 mmHg 70%

    25 Oktober, Donnerstag

    Zeit Temperatur Niederschläge Wind Luftdruck Luftfeuchtigkeit
    00:00 +14°C° 0.1 mm 10 m/S 722 mmHg 73%
    01:00 +13°C° 0.1 mm 10 m/S 721 mmHg 75%
    02:00 +13°C° 0.1 mm 10 m/S 721 mmHg 77%
    03:00 +13°C° 0.7 mm 10 m/S 721 mmHg 79%
    04:00 +13°C° 0.7 mm 10 m/S 721 mmHg 80%
    05:00 +13°C° 0.7 mm 10 m/S 721 mmHg 82%
    06:00 +13°C° 0.6 mm 9 m/S 722 mmHg 82%
    07:00 +13°C° 0.6 mm 9 m/S 722 mmHg 81%
    08:00 +15°C° 0.6 mm 9 m/S 723 mmHg 81%
    09:00 +15°C° 0.5 mm 9 m/S 723 mmHg 81%
    10:00 +14°C° 0.5 mm 10 m/S 723 mmHg 81%
    11:00 +14°C° 0.5 mm 10 m/S 723 mmHg 81%
    12:00 +14°C° 0.5 mm 10 m/S 723 mmHg 80%
    13:00 +16°C° 0.5 mm 10 m/S 723 mmHg 79%
    14:00 +16°C° 0.5 mm 10 m/S 723 mmHg 78%
    15:00 +16°C° 0.1 mm 10 m/S 723 mmHg 78%
    16:00 +16°C° 0.1 mm 10 m/S 724 mmHg 77%
    17:00 +16°C° 0.1 mm 11 m/S 724 mmHg 76%
    18:00 +16°C° 0.3 mm 10 m/S 725 mmHg 77%
    19:00 +14°C° 0.3 mm 10 m/S 726 mmHg 79%
    20:00 +14°C° 0.3 mm 10 m/S 727 mmHg 80%
    21:00 +14°C° 0 mm 10 m/S 727 mmHg 80%
    22:00 +14°C° 0 mm 10 m/S 727 mmHg 81%
    23:00 +13°C° 0 mm 10 m/S 727 mmHg 82%
    Mehr zeigen